Facebook Twitter

Wetterstation Mönchengladbach

Messwerte
  Temperatur Wetter Niederschlag Luftdruck Wind
Fr, 10:20 Uhr 23 °C - - 1014 hPa 5 km/h
Fr, 09:50 Uhr 22 °C - - 1014 hPa 5 km/h
Fr, 09:20 Uhr 20 °C - - 1014 hPa 5 km/h
Fr, 08:50 Uhr 19 °C - - 1014 hPa 5 km/h
Fr, 08:20 Uhr 18 °C - - 1014 hPa 5 km/h
Fr, 07:50 Uhr 18 °C - - 1014 hPa 3 km/h
Do, 21:50 Uhr 23 °C - - 1016 hPa 10 km/h NW
Do, 21:20 Uhr 25 °C - - 1016 hPa 10 km/h NW
Do, 20:50 Uhr 26 °C - - 1015 hPa 10 km/h NW
Do, 20:20 Uhr 27 °C - - 1015 hPa 10 km/h NW
Do, 19:50 Uhr 27 °C - - 1015 hPa 13 km/h NW
Do, 19:20 Uhr 28 °C - - 1015 hPa 8 km/h N
Do, 18:50 Uhr 27 °C - - 1016 hPa 10 km/h N
Do, 18:20 Uhr 28 °C - - 1016 hPa 10 km/h
Do, 17:50 Uhr 28 °C - - 1016 hPa 8 km/h
Do, 17:20 Uhr 27 °C - - 1016 hPa 3 km/h
Do, 16:50 Uhr 27 °C - - 1017 hPa 5 km/h
Do, 16:20 Uhr 29 °C - - 1017 hPa 8 km/h
Do, 15:50 Uhr 28 °C - - 1017 hPa 10 km/h
Do, 15:20 Uhr 28 °C - - 1017 hPa 5 km/h

Alle Zeitangaben MESZ